• In Romania
  • List of Countries
  • For 7 days
  • Water Temperature
  • Satellite Maps
  • Weather Map
  • Weather Widgets
  • user-avatar
    Login

    Hourly Weather Malanje

    Today, 28 May, Monday

    Time Temperature Precipitation Wind Pressure Humidity
    00:00 +22°C° 0 mm 1 mps 667 mmHg 48%
    01:00 +20°C° 0 mm 2 mps 667 mmHg 50%
    02:00 +21°C° 0 mm 1 mps 667 mmHg 52%
    03:00 +20°C° 0 mm 1 mps 667 mmHg 54%
    04:00 +20°C° 0 mm 1 mps 667 mmHg 56%
    05:00 +20°C° 0 mm 1 mps 667 mmHg 57%
    06:00 +20°C° 0 mm 1 mps 667 mmHg 58%
    07:00 +19°C° 0 mm 2 mps 667 mmHg 59%
    08:00 +21°C° 0 mm 2 mps 668 mmHg 52%
    09:00 +25°C° 0 mm 3 mps 669 mmHg 45%
    10:00 +28°C° 0 mm 4 mps 669 mmHg 37%
    11:00 +29°C° 0 mm 4 mps 669 mmHg 35%
    12:00 +30°C° 0 mm 3 mps 668 mmHg 33%
    13:00 +31°C° 0 mm 3 mps 668 mmHg 30%
    14:00 +31°C° 0 mm 2 mps 667 mmHg 31%
    15:00 +31°C° 0 mm 2 mps 667 mmHg 32%
    16:00 +31°C° 0 mm 1 mps 666 mmHg 33%
    17:00 +29°C° 0 mm 1 mps 666 mmHg 38%
    18:00 +26°C° 0 mm 1 mps 666 mmHg 43%
    19:00 +22°C° 0 mm 0 mps 666 mmHg 48%
    20:00 +21°C° 0 mm 0 mps 666 mmHg 50%
    21:00 +23°C° 0 mm 1 mps 666 mmHg 51%
    22:00 +22°C° 0 mm 1 mps 667 mmHg 52%
    23:00 +22°C° 0 mm 1 mps 667 mmHg 53%

    Tomorrow, 29 May, Tuesday

    Time Temperature Precipitation Wind Pressure Humidity
    00:00 +21°C° 0 mm 1 mps 667 mmHg 54%
    01:00 +21°C° 0 mm 1 mps 666 mmHg 54%
    02:00 +21°C° 0 mm 1 mps 666 mmHg 55%
    03:00 +21°C° 0 mm 1 mps 666 mmHg 55%
    04:00 +21°C° 0 mm 1 mps 666 mmHg 55%
    05:00 +21°C° 0 mm 1 mps 666 mmHg 57%
    06:00 +21°C° 0 mm 1 mps 667 mmHg 59%
    07:00 +21°C° 0 mm 1 mps 667 mmHg 62%
    08:00 +24°C° 0 mm 2 mps 668 mmHg 55%
    09:00 +27°C° 0 mm 2 mps 668 mmHg 47%
    10:00 +29°C° 0 mm 3 mps 669 mmHg 40%
    11:00 +30°C° 0 mm 3 mps 668 mmHg 37%
    12:00 +32°C° 0 mm 2 mps 668 mmHg 34%
    13:00 +34°C° 0 mm 2 mps 667 mmHg 31%
    14:00 +32°C° 0 mm 2 mps 667 mmHg 31%
    15:00 +32°C° 0 mm 1 mps 666 mmHg 31%
    16:00 +32°C° 0 mm 1 mps 666 mmHg 31%
    17:00 +29°C° 0 mm 1 mps 665 mmHg 36%
    18:00 +27°C° 0 mm 1 mps 665 mmHg 40%
    19:00 +25°C° 0 mm 1 mps 665 mmHg 45%
    20:00 +24°C° 0 mm 1 mps 665 mmHg 45%
    21:00 +24°C° 0 mm 1 mps 666 mmHg 46%
    22:00 +24°C° 0 mm 1 mps 666 mmHg 46%
    23:00 +23°C° 0 mm 1 mps 666 mmHg 47%

    Day after tomorrow, 30 May, Wednesday

    Time Temperature Precipitation Wind Pressure Humidity
    00:00 +23°C° 0 mm 1 mps 666 mmHg 48%
    01:00 +22°C° 0 mm 1 mps 666 mmHg 48%
    02:00 +21°C° 0 mm 1 mps 665 mmHg 51%
    03:00 +21°C° 0 mm 1 mps 665 mmHg 53%
    04:00 +20°C° 0 mm 1 mps 665 mmHg 56%
    05:00 +20°C° 0 mm 1 mps 665 mmHg 57%
    06:00 +20°C° 0 mm 1 mps 666 mmHg 58%
    07:00 +20°C° 0 mm 1 mps 666 mmHg 59%
    08:00 +23°C° 0 mm 1 mps 667 mmHg 53%
    09:00 +26°C° 0 mm 2 mps 668 mmHg 46%
    10:00 +29°C° 0 mm 2 mps 668 mmHg 39%
    11:00 +30°C° 0 mm 2 mps 668 mmHg 35%
    12:00 +32°C° 0 mm 1 mps 668 mmHg 31%
    13:00 +34°C° 0 mm 1 mps 667 mmHg 27%
    14:00 +33°C° 0 mm 1 mps 667 mmHg 28%
    15:00 +30°C° 0 mm 0 mps 666 mmHg 29%
    16:00 +30°C° 0 mm 0 mps 665 mmHg 30%
    17:00 +27°C° 0 mm 0 mps 665 mmHg 33%
    18:00 +25°C° 0 mm 0 mps 665 mmHg 37%
    19:00 +23°C° 0 mm 0 mps 665 mmHg 40%
    20:00 +22°C° 0 mm 0 mps 666 mmHg 42%
    21:00 +24°C° 0 mm 1 mps 666 mmHg 44%
    22:00 +23°C° 0 mm 1 mps 666 mmHg 45%
    23:00 +23°C° 0 mm 1 mps 666 mmHg 49%

    31 May, Thursday

    Time Temperature Precipitation Wind Pressure Humidity
    00:00 +22°C° 0 mm 1 mps 666 mmHg 52%
    01:00 +22°C° 0 mm 1 mps 666 mmHg 56%
    02:00 +21°C° 0 mm 1 mps 665 mmHg 61%
    03:00 +20°C° 0 mm 1 mps 665 mmHg 66%
    04:00 +19°C° 0 mm 1 mps 665 mmHg 71%
    05:00 +20°C° 0 mm 1 mps 665 mmHg 70%
    06:00 +20°C° 0 mm 1 mps 666 mmHg 69%
    07:00 +20°C° 0 mm 1 mps 666 mmHg 68%
    08:00 +23°C° 0 mm 1 mps 667 mmHg 58%
    09:00 +26°C° 0 mm 1 mps 668 mmHg 47%
    10:00 +29°C° 0 mm 2 mps 668 mmHg 37%
    11:00 +31°C° 0 mm 2 mps 668 mmHg 33%
    12:00 +32°C° 0 mm 2 mps 667 mmHg 30%
    13:00 +34°C° 0 mm 2 mps 667 mmHg 27%
    14:00 +34°C° 0 mm 2 mps 666 mmHg 27%
    15:00 +32°C° 0 mm 2 mps 666 mmHg 28%
    16:00 +32°C° 0 mm 1 mps 666 mmHg 29%
    17:00 +29°C° 0 mm 1 mps 666 mmHg 34%
    18:00 +25°C° 0 mm 0 mps 666 mmHg 39%
    19:00 +22°C° 0 mm 0 mps 666 mmHg 44%
    20:00 +22°C° 0 mm 0 mps 666 mmHg 45%
    21:00 +21°C° 0 mm 0 mps 666 mmHg 46%
    22:00 +21°C° 0 mm 0 mps 667 mmHg 47%
    23:00 +22°C° 0 mm 1 mps 666 mmHg 52%

    1 June, Friday

    Time Temperature Precipitation Wind Pressure Humidity
    00:00 +21°C° 0 mm 1 mps 666 mmHg 56%
    01:00 +21°C° 0 mm 1 mps 666 mmHg 60%
    02:00 +20°C° 0 mm 1 mps 666 mmHg 64%
    03:00 +20°C° 0 mm 1 mps 665 mmHg 68%
    04:00 +19°C° 0 mm 1 mps 665 mmHg 72%
    05:00 +19°C° 0 mm 1 mps 666 mmHg 71%
    06:00 +20°C° 0 mm 1 mps 666 mmHg 70%
    07:00 +20°C° 0 mm 1 mps 667 mmHg 69%
    08:00 +23°C° 0 mm 1 mps 667 mmHg 58%
    09:00 +26°C° 0 mm 2 mps 668 mmHg 48%
    10:00 +29°C° 0 mm 2 mps 669 mmHg 37%
    11:00 +30°C° 0 mm 2 mps 668 mmHg 34%
    12:00 +32°C° 0 mm 2 mps 668 mmHg 30%
    13:00 +34°C° 0 mm 2 mps 667 mmHg 27%
    14:00 +34°C° 0 mm 2 mps 666 mmHg 28%
    15:00 +32°C° 0 mm 2 mps 666 mmHg 28%
    16:00 +32°C° 0 mm 1 mps 666 mmHg 28%
    17:00 +30°C° 0 mm 1 mps 665 mmHg 33%
    18:00 +27°C° 0 mm 1 mps 665 mmHg 38%
    19:00 +22°C° 0 mm 0 mps 665 mmHg 43%
    20:00 +22°C° 0 mm 0 mps 666 mmHg 44%
    21:00 +21°C° 0 mm 0 mps 666 mmHg 45%
    22:00 +21°C° 0 mm 0 mps 666 mmHg 46%
    23:00 +20°C° 0 mm 0 mps 666 mmHg 49%

    2 June, Saturday

    Time Temperature Precipitation Wind Pressure Humidity
    00:00 +22°C° 0 mm 1 mps 666 mmHg 51%
    01:00 +22°C° 0 mm 1 mps 666 mmHg 54%
    02:00 +21°C° 0 mm 1 mps 666 mmHg 59%
    03:00 +20°C° 0 mm 1 mps 665 mmHg 65%
    04:00 +19°C° 0 mm 1 mps 665 mmHg 71%
    05:00 +20°C° 0 mm 1 mps 666 mmHg 69%
    06:00 +20°C° 0 mm 1 mps 666 mmHg 67%
    07:00 +20°C° 0 mm 1 mps 667 mmHg 65%
    08:00 +23°C° 0 mm 2 mps 667 mmHg 54%
    09:00 +26°C° 0 mm 2 mps 668 mmHg 44%
    10:00 +29°C° 0 mm 3 mps 669 mmHg 33%
    11:00 +30°C° 0 mm 3 mps 668 mmHg 30%
    12:00 +31°C° 0 mm 3 mps 668 mmHg 27%
    13:00 +34°C° 0 mm 3 mps 667 mmHg 24%
    14:00 +34°C° 0 mm 2 mps 667 mmHg 25%
    15:00 +32°C° 0 mm 2 mps 666 mmHg 25%
    16:00 +32°C° 0 mm 1 mps 666 mmHg 25%
    17:00 +30°C° 0 mm 1 mps 666 mmHg 29%
    18:00 +27°C° 0 mm 1 mps 666 mmHg 33%
    19:00 +24°C° 0 mm 1 mps 665 mmHg 37%
    20:00 +24°C° 0 mm 1 mps 666 mmHg 38%
    21:00 +23°C° 0 mm 1 mps 666 mmHg 38%
    22:00 +22°C° 0 mm 1 mps 666 mmHg 38%
    23:00 +21°C° 0 mm 1 mps 666 mmHg 39%
    Show more